STARLINK-11475, 62226

Orbit data source: Space-Track

STARLINK-11475, 62226 is a payload satellite owned by SpaceX/Seattle (US) in LEO that was launched on Thu, 05 Dec 2024 UTC via an FALCON 9 launch vehicle from the Air Force Western Test Range (AFWTR). Payload-class satellites include a variety of spacecraft equipped with specific instruments for various scientific and technological missions. These include communications satellites like Starlink; space stations such as the ISS; scientific satellites like the Hubble; Earth observation satellites from companies like Planet Labs, Umbra, and HawkEye 360; GPS; miniature CubeSats for education and research; and military/defense satellites.

Loading next visibility...
Identifier
62226, 2024-231J
Orbit
LEO
Country
Flag of USUS
Related business
Manufacturer
SpaceX/Seattle
Mission
Operational spacecraft
Bus & Motor
STARLINK V2MD, Unknown motor
Mass
960 kg wet, ~910 kg dry
Launch date (UTC)
2024-12-05 (1 year ago)
Launch vehicle
FALCON 9
Launch site
Air Force Western Test Range (AFWTR)
Object type
Payload
Rocket body
Debris
Shape & HBR
Unknown shape, 18.1 m
Radar Cross Section
Large (>1 m²)

Expand to show TLE details & history
Last TLE update: 6 hours ago

TLE from 6 hours ago
0 STARLINK-11475
1 62226U 24231J   26036.85493816  .00159852  00000-0  12968-2 0  9999
2 62226  53.1558 258.0383 0001238  27.3854 332.7229 15.69751863 68417
Epoch: 2026-02-05T20:31Z
TLE epoch observation values (Epoch: 2026-02-05T20:31:06.657Z)
Latitude
0.00001°
Longitude
174.25938°
Altitude
359.78 km
Speed
7.695 km/s
True Right ascension
17h 12m 09s
True Declination
0° 00' 00"
Sunlit
Object was in daylight at epoch
Visualization orbit readout
Latitude
Unknown
Longitude
Unknown
Altitude
Unknown
Speed
Unknown
Apparent Right ascension
Unknown
Apparent Declination
Unknown
Sunlit
N/A
Visualization observer readout
Local Sidereal Time
04:54:34
Azimuth
Unknown
Elevation
Unknown
Doppler factor
Unknown
Orbital elements
Apogee altitude
360.703 km
Perigee altitude
359.034 km
Semi-major axis
6,738.005 km
Eccentricity
0.00012
Inclination
53.1558°
RAAN
258.0383°
Arg. of periapsis
27.3854°
True anomaly
332.7164°
Mean anomaly
332.7229°
Eccentric anomaly
332.71965°
Mean motion
3.92415 °/min
Orbital period
91.74 mins
BSTAR
0.0012968
Loading maneuver chart data...
Computing Atmospheric mass density...
Loading historical data...
Loading historical data...
Loading historical data...
Loading historical data...
Loading historical data...
Loading historical data...
Loading historical data...

Documentation

Showing up to 5 results
|